Location: Sternwarte_Laufen
(47.9344°N, 12.9346°E)
Time: 01:23:58
(UTC+02:00)

ISS - Pass Details

Date: 20 July 2018
Orbit: 402 x 408 km, 51.6° (Epoch: 18 July)

Event Time Altitude Azimuth Distance (km) Brightness Sun altitude
Rises 03:50:38 0° 293° (WNW) 2,332 -0.1 -13.0°
Reaches altitude 10° 03:52:43 10° 290° (WNW) 1,470 -1.2 -12.8°
Maximum altitude 03:55:59 65° 208° (SSW) 451 -3.9 -12.4°
Drops below altitude 10° 03:59:15 10° 126° (SE) 1,465 -1.0 -12.1°
Sets 04:01:20 0° 123° (ESE) 2,323 0.1 -11.9°
